This is the latest recevied weather packets stored in our database for station/object KD4PMP. If no packets are shown the sender has not sent any weather packets the latest 10 day(s).
| Time | Temp. | Humidity | Pressure | Rain* | Wind** | Luminosity | Snow |
|---|---|---|---|---|---|---|---|
| 1787878933 | 26.67° C | 75% | 1012.7 hPa | 0 mm | - | - | - |
| 1787878327 | 27.22° C | 73% | 1012.7 hPa | 0 mm | - | - | - |
| 1787877720 | 27.78° C | 72% | 1012.5 hPa | 0 mm | - | - | - |
| 1787877114 | 28.33° C | 71% | 1012.5 hPa | 0 mm | - | - | - |
| 1787876508 | 28.33° C | 70% | 1012.4 hPa | 0 mm | - | - | - |
| 1787875901 | 28.89° C | 69% | 1012.4 hPa | 0 mm | - | - | - |
| 1787875295 | 28.89° C | 68% | 1012.5 hPa | 0 mm | - | - | - |
| 1787874688 | 29.44° C | 68% | 1012.5 hPa | 0 mm | - | - | - |
| 1787874082 | 30° C | 66% | 1012.5 hPa | 0 mm | - | - | - |
| 1787873476 | 30.56° C | 64% | 1012.4 hPa | 0 mm | - | - | - |
| 1787872869 | 31.11° C | 62% | 1012.5 hPa | 0 mm | - | - | - |
| 1787872263 | 31.11° C | 62% | 1012.5 hPa | 0 mm | - | - | - |
| 1787871657 | 31.67° C | 60% | 1012.5 hPa | 0 mm | - | - | - |
| 1787871050 | 31.67° C | 59% | 1012.5 hPa | 0 mm | - | - | - |
| 1787870443 | 32.22° C | 59% | 1012.4 hPa | 0 mm | - | - | - |
| 1787869837 | 32.22° C | 61% | 1012.3 hPa | 0 mm | - | - | - |
| 1787869231 | 32.78° C | 62% | 1012.3 hPa | 0 mm | - | - | - |
| 1787868624 | 32.78° C | 61% | 1012.3 hPa | 0 mm | - | - | - |
| 1787868018 | 32.78° C | 61% | 1012.3 hPa | 0 mm | - | - | - |
| 1787867411 | 32.78° C | 62% | 1012.4 hPa | 0 mm | - | - | - |
| 1787866805 | 32.78° C | 62% | 1012.5 hPa | 0 mm | - | - | - |
| 1787866199 | 32.22° C | 63% | 1012.6 hPa | 0 mm | - | - | - |
| 1787865593 | 32.22° C | 61% | 1012.7 hPa | 0 mm | - | - | - |
| 1787864986 | 32.22° C | 57% | 1012.6 hPa | 0 mm | - | - | - |
| 1787864380 | 32.22° C | 60% | 1012.5 hPa | 0 mm | - | - | - |
* Rain latest hour (hover to see other rain measurements)
** Current wind speed in m/s (hover to see current wind gust speed)